Location: Staunton
(38.1490°N, 79.0720°W)
Time: 11:15:01
(UTC-04:00)

ISS - Pass Details

Date: 23 May 2020
Orbit: 417 x 420 km, 51.6° (Epoch: 26 May)

Event Time Altitude Azimuth Distance (km) Brightness Sun altitude
Rises 00:56:25 0° 317° (NW) 2,366 0.8 -31.1°
Reaches altitude 10° 00:58:46 10° 331° (NNW) 1,500 -0.2 -31.1°
Enters shadow 00:58:57 11° 333° (NNW) 1,444 -0.3 -31.1°
